CW1172 Weather Reports


time (UTC)temp
C
wind
direction
speed
KPH
gust
KPH
rain 1hr
cm
rain 24hr
cm
rain mn
cm
humidity
%
barometer
mb
20260504014538 9 178 0.0 0.0 0.00 0.00 0.00 92 1005.0
20260504013046 9 178 0.0 0.0 0.00 0.00 0.00 92 1005.0
20260504011532 9 178 0.0 0.0 0.00 0.00 0.00 92 1005.3
20260504010032 9 179 0.0 0.0 0.00 0.00 0.00 91 1005.4
20260504004531 9 179 0.0 0.0 0.00 0.00 0.00 91 1005.4
20260504003029 9 179 0.0 0.0 0.00 0.00 0.00 91 1005.5
20260504001535 9 179 0.0 0.0 0.00 0.00 0.00 91 1005.6
20260504000027 10 178 0.0 0.0 0.00 0.00 0.00 91 1005.8
20260503234529 10 178 0.0 0.0 0.00 0.00 0.00 91 1006.0
20260503233024 10 178 0.0 0.0 0.00 0.00 0.00 91 1006.1
20260503231526 10 179 0.0 0.0 0.00 0.00 0.00 91 1006.2
20260503230036 10 178 0.0 0.0 0.00 0.00 0.00 91 1006.2
20260503224523 10 179 0.0 0.0 0.00 0.00 0.00 91 1006.3
20260503223023 10 179 0.0 0.0 0.00 0.00 0.00 91 1006.5
20260503221524 10 178 0.0 0.0 0.00 0.00 0.00 91 1006.6
20260503220021 10 179 0.0 0.0 0.00 0.00 0.00 91 1006.6
20260503214535 9 179 0.0 0.0 0.00 0.00 0.00 91 1006.8
20260503213020 9 178 0.0 0.0 0.00 0.00 0.00 90 1006.9
20260503211518 8 179 0.0 0.0 0.00 0.00 0.00 90 1007.0
20260503210018 8 179 0.0 0.0 0.00 0.00 0.00 90 1007.1
20260503204518 8 179 0.0 0.0 0.00 0.00 0.00 90 1007.2
20260503203022 8 178 0.0 0.0 0.00 0.00 0.00 89 1007.2
20260503201519 8 199 0.0 0.0 0.00 0.00 0.00 88 1007.2
20260503200017 8 200 0.0 0.0 0.00 0.00 0.00 87 1007.3
20260503194514 8 200 0.0 0.0 0.00 0.00 0.00 87 1007.6
20260503193023 8 200 0.0 0.0 0.00 0.00 0.00 86 1007.7
20260503191527 9 200 0.0 0.0 0.00 0.00 0.00 85 1007.8
20260503190024 10 199 0.0 0.0 0.00 0.00 0.00 84 1007.8
20260503184512 10 199 0.0 0.0 0.00 0.00 0.00 84 1007.7
20260503183012 11 199 0.0 0.0 0.00 0.00 0.00 84 1007.7
20260503181512 11 202 0.0 0.0 0.00 0.00 0.00 83 1007.7
20260503180011 11 186 0.0 0.0 0.00 0.00 0.00 82 1007.7
20260503174509 11 186 0.0 0.0 0.00 0.00 0.00 81 1007.6
20260503173009 11 183 0.0 0.0 0.00 0.00 0.00 81 1007.9
20260503171507 11 180 0.0 0.0 0.00 0.00 0.00 82 1008.0
20260503100106 10 236 0.0 0.0 0.00 0.00 0.00 92 1009.2
20260503081503 10 187 0.0 0.0 0.00 0.00 0.00 91 1009.0
20260503071613 10 184 0.0 0.0 0.00 0.00 0.00 91 1008.5
20260503054611 9 360 0.0 0.0 0.00 0.00 0.00 90 1008.2
20260503053056 9 219 0.0 0.0 0.00 0.00 0.00 90 1008.3
20260503051557 9 218 0.0 0.0 0.00 0.00 0.00 90 1008.2
20260503050057 9 211 0.0 0.0 0.00 0.00 0.00 89 1008.2
20260503044556 9 273 0.0 0.0 0.00 0.00 0.00 89 1008.2
20260503043059 9 229 0.0 0.0 0.00 0.00 0.00 88 1008.2
20260503041553 9 248 0.0 0.0 0.00 0.00 0.00 88 1008.2
20260503040055 10 205 0.0 0.0 0.00 0.00 0.00 88 1008.3
20260503034552 10 191 0.0 0.0 0.00 0.00 0.00 88 1008.2
20260503033052 10 192 0.0 0.0 0.00 0.00 0.00 88 1008.0
20260503031551 10 229 0.0 0.0 0.00 0.00 0.00 88 1008.1
20260503030051 10 199 0.0 0.0 0.00 0.00 0.00 88 1008.2
20260503024550 10 217 0.0 0.0 0.00 0.00 0.00 88 1008.2
20260503023054 10 214 0.0 0.0 0.00 0.00 0.00 88 1008.1
20260503021552 10 213 0.0 0.0 0.00 0.00 0.00 88 1008.1
20260503020051 10 218 0.0 0.0 0.00 0.00 0.00 88 1008.2